SCP
0 0 0 0 0 0 0 0 0 0 0 0 0 0 0 0 0 0 0 0 0 0 0 0 0 0 0 0 0 0 0 0 0 0 0 0 0 0 0 0 0 0 0 -0 -0
0 0 0 0 0 0 0 0 0 0 0 0 0 0 0 0 0 0 0 0 0 0 0 0 0 0 0 0 0 0 0 0 0 0 0 0 0 0 0 0 0 0 0 -0 -0
0 0 0 0 0 0 0 0 0 0 0 0 0 0 0 0 0 0 0 0 0 0 0 0 0 0 0 0 0 0 0 0 0 0 0 0 0 0 0 0 0 0 -0 -0 -0
0 0 0 0 0 0 0 0 0 0 -0 0 0 0 0 0 0 -0 0 0 0 0 0 0 0 0 0 0 0 0 0 0 0 0 0 0 0 0 0 0 0 0 0 0 0
0 0 0 0 0 0 0 0 0 0 -0 0 0 0 0 0 0 0 0 0 0 0 0 0 0 0 0 0 0 0 0 0 0 0 0 0 0 0 0 0 0 0 0 0 0
0 0 0 0 0 0 0 0 0 0 -0 -0 0 0 0 0 0 0 0 0 0 0 0 0 0 0 0 0 0 0 0 0 0 0 0 0 0 0 0 0 0 0 0 0 0
0 0 0 0 0 0 0 0 0 0 -0 -0 0 0 0 0 0 0 0 0 0 0 0 0 0 0 0 0 0 0 0 0 0 0 0 0 0 0 0 0 0 0 0 0 0
0 0 0 0 0 0 0 0 0 0 -0 -0 0 0 0 0 0 0 0 0 0 0 0 0 0 0 0 0 0 0 0 0 0 0 0 0 0 0 0 0 -0 0 0 0 0
0 0 0 0 0 0 0 0 0 0 -0 -0 -0 0 0 0 0 0 0 0 0 0 0 0 0 0 0 0 0 0 0 0 0 0 0 0 0 0 0 0 0 -0 -0 0 0
0 0 0 0 0 0 0 0 0 -0 -0 -0 -0 0 0 0 0 0 0 0 0 0 0 0 0 0 0 0 0 0 0 0 0 0 0 0 0 0 0 0 0 0 -0 0 0
0 0 0 0 0 0 0 0 0 -0 -0 0 0 0 0 0 0 0 0 0 0 0 0 0 0 0 0 0 0 0 0 0 0 0 0 0 0 0 0 0 0 0 0 0 0
0 0 0 0 0 0 0 0 0 0 -0 -0 -0 0 0 0 0 0 0 0 0 0 0 0 0 0 0 0 0 0 0 0 0 0 0 0 0 0 0 0 0 0 0 0 0
0 0 0 0 0 0 0 0 0 0 -0 -0 -0 0 0 0 0 0 0 0 0 0 0 0 0 0 0 0 0 0 0 0 0 0 0 0 0 0 0 0 0 0 0 0 0
0 0 0 0 0 0 0 0 0 0 -0 -0 0 0 0 0 0 0 0 0 0 0 0 0 0 0 0 0 0 0 0 0 0 0 0 0 0 0 0 0 0 0 0 0 0
0 0 0 0 0 0 0 0 0 0 -0 -0 0 0 0 0 0 0 0 0 0 0 0 0 0 0 0 0 0 0 0 0 0 0 0 0 0 -0 -0 0 0 0 0 0 0
0 0 0 0 0 0 0 0 0 0 -0 0 0 0 0 0 0 0 0 0 0 0 0 0 0 0 0 0 0 0 0 0 0 0 0 0 0 -0 0 0 0 0 0 0 0
0 0 0 0 0 0 0 0 0 0 0 0 0 0 0 0 0 0 0 0 0 0 0 0 0 0 0 0 0 0 0 0 0 0 0 0 0 0 0 0 0 0 0 0 0
0 0 0 0 0 0 -0 0 0 0 0 0 0 0 0 0 0 0 0 0 0 0 0 0 0 0 0 0 0 0 0 0 0 0 0 0 0 0 0 0 0 0 0 0 0
0 0 0 0 0 -0 -0 -0 0 0 0 0 0 0 0 0 0 0 0 0 0 0 0 0 0 0 0 0 0 0 0 0 0 0 0 0 0 0 0 0 0 0 0 0 0
0 0 0 0 -0 -0 -0 -0 0 0 0 0 0 0 0 0 0 0 0 0 0 0 0 0 0 0 0 0 0 0 0 0 0 0 0 0 0 0 0 0 0 0 0 0 0
0 0 0 0 0 -0 -0 -0 0 0 0 0 0 0 0 0 0 0 0 0 0 0 0 0 0 0 0 0 0 0 0 0 0 0 0 0 0 0 0 0 0 0 0 0 0
0 0 0 0 -0 0 -0 -0 0 0 0 0 0 0 0 0 0 0 0 0 0 0 0 0 0 0 0 0 0 0 0 0 0 0 0 0 0 0 0 0 0 0 0 0 0
0 0 0 -0 -0 0 -0 0 0 0 0 0 0 0 0 0 0 0 0 0 0 0 0 0 0 0 0 0 0 0 0 0 0 0 0 0 0 0 0 0 0 0 0 0 0
0 -0 -0 -0 0 0 0 0 0 0 0 0 0 0 0 0 0 0 0 0 0 0 0 0 0 0 0 0 0 0 0 0 0 0 0 0 0 0 0 0 0 0 0 0 0
0 0 0 0 0 0 0 0 0 0 0 0 0 0 0 0 0 0 0 0 0 0 0 0 0 0 0 0 0 0 0 0 0 0 0 0 0 0 0 0 0 0 0 0 0
0 0 0 0 0 0 0 0 0 0 0 0 0 0 0 0 0 0 0 0 0 0 0 0 0 0 0 0 0 0 0 0 0 0 0 0 0 0 0 0 0 0 0 0 0
0 0 0 0 0 0 0 0 0 0 0 0 0 0 0 0 0 0 0 0 0 0 0 0 0 0 0 0 0 0 0 0 0 0 0 0 -0 0 0 0 0 0 0 0 0
Wind_Speed_500mb
55 56 58 56 60 56 54 53 67 66 58 53 48 47 46 48 55 65 72 65 64 16 29 32 27 23 22 14 12 8 5 10 5 7 6 22 13 5 11 18 8 9 11 18 38
59 59 59 57 58 56 55 51 68 80 58 57 52 54 49 46 59 75 76 62 61 55 30 34 30 25 16 14 12 13 6 8 3 20 8 20 19 23 12 22 14 16 23 30 40
58 60 55 51 55 60 57 57 66 86 69 63 53 60 57 41 52 64 70 70 68 47 36 34 27 29 21 13 14 8 9 8 6 13 12 18 11 9 12 14 25 36 38 34 43
56 52 55 50 51 54 59 61 55 73 70 72 53 63 57 52 24 34 83 74 65 55 53 43 38 30 16 12 24 7 26 16 17 10 7 12 19 11 14 13 13 20 31 31 42
65 57 52 50 49 48 58 63 58 67 74 85 50 66 66 53 64 6 49 77 68 59 57 50 49 38 19 18 16 16 19 16 18 17 10 9 10 1 16 11 6 17 26 30 29
67 63 54 56 48 47 53 58 64 63 73 93 38 70 74 48 52 71 32 73 78 64 62 54 43 36 24 17 21 24 23 19 15 20 10 4 9 7 17 17 19 14 33 32 36
71 66 61 55 57 47 52 59 56 54 62 100 83 84 69 74 37 55 39 64 75 72 62 60 30 33 22 6 17 15 18 16 23 21 7 12 11 16 26 15 18 12 23 34 34
68 64 63 57 58 56 56 59 59 62 63 93 88 93 50 70 45 63 58 65 66 64 55 61 48 37 20 15 15 21 13 14 24 29 12 16 5 18 46 35 35 21 27 32 38
65 65 65 63 58 54 53 52 56 57 70 89 100 79 50 63 69 63 75 79 63 51 53 42 35 20 14 19 12 29 11 14 8 41 13 15 5 10 29 18 32 29 31 37 38
66 65 59 64 59 56 53 49 45 47 67 65 86 51 41 74 84 71 69 80 63 49 32 29 7 11 10 23 25 17 14 14 24 19 18 17 18 11 12 13 17 25 35 33 43
66 60 58 61 59 55 52 45 34 27 63 43 43 81 55 77 99 78 83 72 61 40 16 16 12 25 36 32 21 24 23 23 12 19 12 16 17 20 38 42 41 37 32 32 31
61 57 57 60 54 55 50 41 62 26 19 82 107 92 65 86 61 91 98 42 39 33 23 12 30 28 26 25 24 19 23 25 9 18 6 10 23 17 25 32 42 41 42 46 43
57 55 53 58 53 56 72 84 58 52 21 48 98 100 79 100 69 84 106 52 42 33 34 32 16 23 31 23 28 11 11 11 10 11 1 9 19 24 23 59 51 51 57 57 58
53 54 56 56 61 75 77 71 63 43 15 22 55 49 91 81 40 92 104 74 16 38 26 6 19 35 33 32 26 26 15 9 18 10 5 11 10 13 13 11 35 52 54 56 57
54 54 60 74 54 49 50 47 82 67 20 21 48 52 86 72 74 75 93 51 45 36 19 22 26 38 36 32 32 10 13 15 9 3 10 10 6 11 14 13 18 34 54 57 58
55 57 67 59 61 68 56 29 72 33 31 18 27 31 59 42 75 101 59 37 64 47 30 15 34 17 19 18 14 17 20 15 11 2 11 17 14 9 11 16 13 23 33 26 35
57 60 59 54 45 42 54 41 40 38 16 14 26 32 72 30 45 75 43 40 34 43 34 18 27 11 11 18 10 20 27 6 3 4 12 9 12 21 13 3 2 8 8 12 15
50 47 51 53 55 51 42 10 27 54 30 11 42 53 47 59 56 56 55 47 39 43 35 18 8 30 24 26 19 28 21 10 14 11 7 1 13 11 17 8 12 22 26 21 17
41 43 43 44 54 27 8 9 23 56 18 29 58 62 17 46 31 46 49 57 49 52 24 23 8 28 40 29 29 29 24 5 12 4 6 10 12 15 17 17 14 18 17 24 18
45 34 37 40 26 29 5 13 21 36 35 52 44 38 32 49 47 48 48 45 43 44 15 22 15 22 9 16 5 25 19 9 3 13 10 9 10 13 8 16 19 16 28 26 23
33 16 17 20 15 11 9 18 18 40 48 59 40 21 25 42 60 56 59 45 56 44 9 38 12 11 14 14 31 12 20 10 11 7 9 2 11 14 24 21 19 21 26 16 15
28 8 32 23 4 8 24 20 33 51 55 22 45 37 44 57 49 37 56 44 74 45 40 8 13 16 14 7 11 8 18 11 11 10 4 7 12 11 11 15 37 31 26 12 3
11 13 23 13 6 14 10 11 32 52 51 37 38 24 38 49 30 9 44 36 67 45 38 19 10 19 11 10 8 27 29 29 3 7 12 12 15 12 20 21 28 22 20 11 5
12 6 11 16 25 11 17 22 26 56 51 49 55 40 54 45 21 24 41 36 79 58 39 19 11 12 16 16 23 15 33 34 17 5 9 17 40 2 18 18 18 20 7 5 17
12 3 5 5 9 12 14 22 50 35 3 47 39 58 68 32 36 20 41 40 45 53 23 12 10 11 18 25 31 40 48 38 39 42 27 45 35 40 10 10 16 10 15 17 23
12 7 10 6 11 18 8 23 52 27 27 33 37 63 53 38 41 63 60 56 62 39 37 19 8 14 9 17 16 26 32 42 46 56 39 29 37 20 31 28 18 19 24 35 39
15 15 10 3 7 7 5 12 45 40 14 20 65 58 61 32 35 43 54 25 51 52 33 19 11 10 7 16 16 3 46 41 43 46 54 38 69 10 11 10 24 33 40 46 42
Wind_Direction_500mb
242 239 242 244 242 237 237 229 221 234 239 229 234 233 223 219 219 215 220 218 218 201 205 224 220 211 207 207 193 246 275 195 205 323 74 152 142 127 107 117 101 100 92 165 174
243 242 242 242 242 240 233 231 224 228 238 226 234 233 224 221 232 222 223 216 215 220 216 202 193 187 190 194 192 219 236 258 227 175 168 177 187 146 161 136 137 112 118 159 171
240 239 239 239 242 241 236 231 225 223 232 229 229 231 225 219 227 228 216 219 219 214 218 200 196 178 200 198 192 199 237 224 63 82 147 175 155 124 207 172 165 169 158 172 172
236 240 234 236 240 238 237 230 234 231 230 225 221 227 225 213 227 259 223 213 212 214 206 205 199 182 180 208 204 205 231 297 122 139 103 176 147 183 239 128 110 103 181 182 180
235 236 234 235 235 236 232 228 230 238 233 231 220 225 215 202 215 217 209 213 206 201 197 198 193 193 192 197 202 210 238 196 149 154 189 143 186 207 209 171 172 141 183 190 197
235 234 231 231 233 232 229 230 231 244 230 237 238 222 216 222 221 220 207 203 204 202 196 193 195 189 203 199 191 194 233 157 174 169 171 197 203 196 230 171 156 168 182 194 202
238 231 232 232 228 228 224 226 231 235 234 236 239 213 216 212 222 206 217 199 200 197 193 198 202 180 166 205 188 263 158 162 192 174 198 198 266 227 235 172 181 199 197 196 202
234 230 230 231 227 227 228 231 231 235 243 244 242 202 223 224 212 203 198 192 187 193 194 198 198 190 184 166 147 243 191 181 189 174 193 167 228 234 227 234 234 213 208 203 207
232 229 230 227 230 228 229 235 234 235 246 243 234 201 204 190 194 192 193 187 184 181 189 179 177 185 192 161 127 219 178 204 196 179 136 190 229 255 230 243 228 212 233 205 202
227 230 231 229 224 228 227 234 233 240 238 245 246 217 171 183 180 179 171 180 162 158 143 182 114 181 206 200 188 165 183 201 206 174 200 186 235 263 188 212 227 244 245 244 205
228 232 232 226 220 227 227 221 234 244 231 219 252 209 186 185 186 183 166 159 160 155 145 167 167 202 188 201 223 170 173 215 231 133 157 234 241 241 232 217 219 229 243 243 236
227 230 230 214 218 220 234 222 219 208 241 229 242 199 197 171 172 173 164 142 156 167 138 129 211 198 200 216 211 230 178 196 110 96 133 270 276 267 253 237 213 216 229 234 231
224 229 218 212 215 223 227 231 234 232 250 246 232 231 193 172 176 170 167 153 169 153 171 173 180 205 214 200 216 213 189 216 146 112 327 301 281 239 232 238 237 232 233 234 231
222 212 214 206 209 228 236 238 230 222 248 236 222 204 188 181 184 174 178 154 163 171 158 184 206 188 209 209 191 199 193 74 110 106 209 148 283 317 304 232 220 229 234 236 234
213 214 212 215 214 218 226 233 234 202 223 212 192 184 176 181 139 169 172 169 168 154 149 182 202 179 203 202 180 205 153 106 88 328 319 234 269 267 223 247 237 205 219 229 237
210 206 210 214 230 242 252 248 192 206 214 190 162 183 164 181 158 162 170 172 162 149 166 142 187 207 198 184 170 121 103 81 62 71 256 214 214 226 226 223 218 209 220 230 233
204 213 221 229 237 245 233 260 184 202 142 226 159 172 170 178 152 164 170 167 157 145 160 134 173 119 199 151 88 137 138 98 157 185 226 57 210 228 282 272 110 330 164 190 249
205 216 230 242 252 246 246 249 198 188 189 216 161 165 175 165 159 159 164 166 165 163 144 144 181 163 188 188 171 184 161 145 186 186 209 62 238 250 218 273 213 225 232 227 255
207 219 234 220 230 249 138 256 207 177 162 168 159 164 146 169 154 153 166 168 169 165 150 161 121 174 171 169 151 193 207 99 97 359 62 193 253 292 247 255 230 238 244 243 253
206 195 223 231 251 290 198 201 257 174 160 164 167 161 162 175 150 157 166 173 170 173 134 152 113 175 135 112 13 188 152 125 171 161 231 241 232 223 110 218 241 239 240 258 226
178 171 210 202 253 170 215 230 211 177 161 159 160 135 146 162 155 160 171 178 171 173 99 138 104 141 143 195 179 155 181 197 128 197 170 117 255 199 214 201 201 170 124 111 148
170 187 173 197 191 221 212 190 209 174 172 174 166 155 162 164 170 168 185 175 176 164 153 104 114 145 173 136 200 206 172 184 175 204 240 103 262 142 91 99 105 115 123 123 288
205 177 183 183 232 226 248 184 203 158 166 155 158 162 168 161 162 139 178 148 173 163 158 162 132 124 131 345 165 209 187 197 132 88 188 150 257 227 181 122 130 131 143 147 339
191 175 184 199 223 248 261 200 158 172 158 165 163 151 157 164 134 164 157 164 169 176 139 97 134 145 166 139 124 169 191 197 202 133 175 217 247 219 127 155 168 170 186 233 276
208 189 147 270 206 273 253 208 154 158 117 170 167 158 166 151 151 154 145 150 169 158 149 117 127 112 134 146 160 176 181 184 201 220 207 234 237 226 213 205 208 206 256 267 266
170 167 201 253 265 268 253 208 153 137 168 182 156 167 172 165 169 161 158 162 171 168 170 170 133 108 48 136 138 175 188 194 202 213 219 237 261 117 214 225 212 238 243 238 250
208 201 232 215 287 296 313 204 150 138 187 194 168 165 177 162 139 151 152 125 165 163 159 150 122 118 149 124 104 27 203 193 212 217 215 217 238 238 240 231 249 254 257 258 260
Wind_Speed_850mb
55 56 58 56 60 56 54 53 67 66 58 53 48 47 46 48 55 65 72 65 64 16 29 32 27 23 22 14 12 8 5 10 5 7 6 22 13 5 11 18 8 9 11 18 38
59 59 59 57 58 56 55 51 68 80 58 57 52 54 49 46 59 75 76 62 61 55 30 34 30 25 16 14 12 13 6 8 3 20 8 20 19 23 12 22 14 16 23 30 40
58 60 55 51 55 60 57 57 66 86 69 63 53 60 57 41 52 64 70 70 68 47 36 34 27 29 21 13 14 8 9 8 6 13 12 18 11 9 12 14 25 36 38 34 43
56 52 55 50 51 54 59 61 55 73 70 72 53 63 57 52 24 34 83 74 65 55 53 43 38 30 16 12 24 7 26 16 17 10 7 12 19 11 14 13 13 20 31 31 42
65 57 52 50 49 48 58 63 58 67 74 85 50 66 66 53 64 6 49 77 68 59 57 50 49 38 19 18 16 16 19 16 18 17 10 9 10 1 16 11 6 17 26 30 29
67 63 54 56 48 47 53 58 64 63 73 93 38 70 74 48 52 71 32 73 78 64 62 54 43 36 24 17 21 24 23 19 15 20 10 4 9 7 17 17 19 14 33 32 36
71 66 61 55 57 47 52 59 56 54 62 100 83 84 69 74 37 55 39 64 75 72 62 60 30 33 22 6 17 15 18 16 23 21 7 12 11 16 26 15 18 12 23 34 34
68 64 63 57 58 56 56 59 59 62 63 93 88 93 50 70 45 63 58 65 66 64 55 61 48 37 20 15 15 21 13 14 24 29 12 16 5 18 46 35 35 21 27 32 38
65 65 65 63 58 54 53 52 56 57 70 89 100 79 50 63 69 63 75 79 63 51 53 42 35 20 14 19 12 29 11 14 8 41 13 15 5 10 29 18 32 29 31 37 38
66 65 59 64 59 56 53 49 45 47 67 65 86 51 41 74 84 71 69 80 63 49 32 29 7 11 10 23 25 17 14 14 24 19 18 17 18 11 12 13 17 25 35 33 43
66 60 58 61 59 55 52 45 34 27 63 43 43 81 55 77 99 78 83 72 61 40 16 16 12 25 36 32 21 24 23 23 12 19 12 16 17 20 38 42 41 37 32 32 31
61 57 57 60 54 55 50 41 62 26 19 82 107 92 65 86 61 91 98 42 39 33 23 12 30 28 26 25 24 19 23 25 9 18 6 10 23 17 25 32 42 41 42 46 43
57 55 53 58 53 56 72 84 58 52 21 48 98 100 79 100 69 84 106 52 42 33 34 32 16 23 31 23 28 11 11 11 10 11 1 9 19 24 23 59 51 51 57 57 58
53 54 56 56 61 75 77 71 63 43 15 22 55 49 91 81 40 92 104 74 16 38 26 6 19 35 33 32 26 26 15 9 18 10 5 11 10 13 13 11 35 52 54 56 57
54 54 60 74 54 49 50 47 82 67 20 21 48 52 86 72 74 75 93 51 45 36 19 22 26 38 36 32 32 10 13 15 9 3 10 10 6 11 14 13 18 34 54 57 58
55 57 67 59 61 68 56 29 72 33 31 18 27 31 59 42 75 101 59 37 64 47 30 15 34 17 19 18 14 17 20 15 11 2 11 17 14 9 11 16 13 23 33 26 35
57 60 59 54 45 42 54 41 40 38 16 14 26 32 72 30 45 75 43 40 34 43 34 18 27 11 11 18 10 20 27 6 3 4 12 9 12 21 13 3 2 8 8 12 15
50 47 51 53 55 51 42 10 27 54 30 11 42 53 47 59 56 56 55 47 39 43 35 18 8 30 24 26 19 28 21 10 14 11 7 1 13 11 17 8 12 22 26 21 17
41 43 43 44 54 27 8 9 23 56 18 29 58 62 17 46 31 46 49 57 49 52 24 23 8 28 40 29 29 29 24 5 12 4 6 10 12 15 17 17 14 18 17 24 18
45 34 37 40 26 29 5 13 21 36 35 52 44 38 32 49 47 48 48 45 43 44 15 22 15 22 9 16 5 25 19 9 3 13 10 9 10 13 8 16 19 16 28 26 23
33 16 17 20 15 11 9 18 18 40 48 59 40 21 25 42 60 56 59 45 56 44 9 38 12 11 14 14 31 12 20 10 11 7 9 2 11 14 24 21 19 21 26 16 15
28 8 32 23 4 8 24 20 33 51 55 22 45 37 44 57 49 37 56 44 74 45 40 8 13 16 14 7 11 8 18 11 11 10 4 7 12 11 11 15 37 31 26 12 3
11 13 23 13 6 14 10 11 32 52 51 37 38 24 38 49 30 9 44 36 67 45 38 19 10 19 11 10 8 27 29 29 3 7 12 12 15 12 20 21 28 22 20 11 5
12 6 11 16 25 11 17 22 26 56 51 49 55 40 54 45 21 24 41 36 79 58 39 19 11 12 16 16 23 15 33 34 17 5 9 17 40 2 18 18 18 20 7 5 17
12 3 5 5 9 12 14 22 50 35 3 47 39 58 68 32 36 20 41 40 45 53 23 12 10 11 18 25 31 40 48 38 39 42 27 45 35 40 10 10 16 10 15 17 23
12 7 10 6 11 18 8 23 52 27 27 33 37 63 53 38 41 63 60 56 62 39 37 19 8 14 9 17 16 26 32 42 46 56 39 29 37 20 31 28 18 19 24 35 39
15 15 10 3 7 7 5 12 45 40 14 20 65 58 61 32 35 43 54 25 51 52 33 19 11 10 7 16 16 3 46 41 43 46 54 38 69 10 11 10 24 33 40 46 42
Wind_Direction_850mb
242 239 242 244 242 237 237 229 221 234 239 229 234 233 223 219 219 215 220 218 218 201 205 224 220 211 207 207 193 246 275 195 205 323 74 152 142 127 107 117 101 100 92 165 174
243 242 242 242 242 240 233 231 224 228 238 226 234 233 224 221 232 222 223 216 215 220 216 202 193 187 190 194 192 219 236 258 227 175 168 177 187 146 161 136 137 112 118 159 171
240 239 239 239 242 241 236 231 225 223 232 229 229 231 225 219 227 228 216 219 219 214 218 200 196 178 200 198 192 199 237 224 63 82 147 175 155 124 207 172 165 169 158 172 172
236 240 234 236 240 238 237 230 234 231 230 225 221 227 225 213 227 259 223 213 212 214 206 205 199 182 180 208 204 205 231 297 122 139 103 176 147 183 239 128 110 103 181 182 180
235 236 234 235 235 236 232 228 230 238 233 231 220 225 215 202 215 217 209 213 206 201 197 198 193 193 192 197 202 210 238 196 149 154 189 143 186 207 209 171 172 141 183 190 197
235 234 231 231 233 232 229 230 231 244 230 237 238 222 216 222 221 220 207 203 204 202 196 193 195 189 203 199 191 194 233 157 174 169 171 197 203 196 230 171 156 168 182 194 202
238 231 232 232 228 228 224 226 231 235 234 236 239 213 216 212 222 206 217 199 200 197 193 198 202 180 166 205 188 263 158 162 192 174 198 198 266 227 235 172 181 199 197 196 202
234 230 230 231 227 227 228 231 231 235 243 244 242 202 223 224 212 203 198 192 187 193 194 198 198 190 184 166 147 243 191 181 189 174 193 167 228 234 227 234 234 213 208 203 207
232 229 230 227 230 228 229 235 234 235 246 243 234 201 204 190 194 192 193 187 184 181 189 179 177 185 192 161 127 219 178 204 196 179 136 190 229 255 230 243 228 212 233 205 202
227 230 231 229 224 228 227 234 233 240 238 245 246 217 171 183 180 179 171 180 162 158 143 182 114 181 206 200 188 165 183 201 206 174 200 186 235 263 188 212 227 244 245 244 205
228 232 232 226 220 227 227 221 234 244 231 219 252 209 186 185 186 183 166 159 160 155 145 167 167 202 188 201 223 170 173 215 231 133 157 234 241 241 232 217 219 229 243 243 236
227 230 230 214 218 220 234 222 219 208 241 229 242 199 197 171 172 173 164 142 156 167 138 129 211 198 200 216 211 230 178 196 110 96 133 270 276 267 253 237 213 216 229 234 231
224 229 218 212 215 223 227 231 234 232 250 246 232 231 193 172 176 170 167 153 169 153 171 173 180 205 214 200 216 213 189 216 146 112 327 301 281 239 232 238 237 232 233 234 231
222 212 214 206 209 228 236 238 230 222 248 236 222 204 188 181 184 174 178 154 163 171 158 184 206 188 209 209 191 199 193 74 110 106 209 148 283 317 304 232 220 229 234 236 234
213 214 212 215 214 218 226 233 234 202 223 212 192 184 176 181 139 169 172 169 168 154 149 182 202 179 203 202 180 205 153 106 88 328 319 234 269 267 223 247 237 205 219 229 237
210 206 210 214 230 242 252 248 192 206 214 190 162 183 164 181 158 162 170 172 162 149 166 142 187 207 198 184 170 121 103 81 62 71 256 214 214 226 226 223 218 209 220 230 233
204 213 221 229 237 245 233 260 184 202 142 226 159 172 170 178 152 164 170 167 157 145 160 134 173 119 199 151 88 137 138 98 157 185 226 57 210 228 282 272 110 330 164 190 249
205 216 230 242 252 246 246 249 198 188 189 216 161 165 175 165 159 159 164 166 165 163 144 144 181 163 188 188 171 184 161 145 186 186 209 62 238 250 218 273 213 225 232 227 255
207 219 234 220 230 249 138 256 207 177 162 168 159 164 146 169 154 153 166 168 169 165 150 161 121 174 171 169 151 193 207 99 97 359 62 193 253 292 247 255 230 238 244 243 253
206 195 223 231 251 290 198 201 257 174 160 164 167 161 162 175 150 157 166 173 170 173 134 152 113 175 135 112 13 188 152 125 171 161 231 241 232 223 110 218 241 239 240 258 226
178 171 210 202 253 170 215 230 211 177 161 159 160 135 146 162 155 160 171 178 171 173 99 138 104 141 143 195 179 155 181 197 128 197 170 117 255 199 214 201 201 170 124 111 148
170 187 173 197 191 221 212 190 209 174 172 174 166 155 162 164 170 168 185 175 176 164 153 104 114 145 173 136 200 206 172 184 175 204 240 103 262 142 91 99 105 115 123 123 288
205 177 183 183 232 226 248 184 203 158 166 155 158 162 168 161 162 139 178 148 173 163 158 162 132 124 131 345 165 209 187 197 132 88 188 150 257 227 181 122 130 131 143 147 339
191 175 184 199 223 248 261 200 158 172 158 165 163 151 157 164 134 164 157 164 169 176 139 97 134 145 166 139 124 169 191 197 202 133 175 217 247 219 127 155 168 170 186 233 276
208 189 147 270 206 273 253 208 154 158 117 170 167 158 166 151 151 154 145 150 169 158 149 117 127 112 134 146 160 176 181 184 201 220 207 234 237 226 213 205 208 206 256 267 266
170 167 201 253 265 268 253 208 153 137 168 182 156 167 172 165 169 161 158 162 171 168 170 170 133 108 48 136 138 175 188 194 202 213 219 237 261 117 214 225 212 238 243 238 250
208 201 232 215 287 296 313 204 150 138 187 194 168 165 177 162 139 151 152 125 165 163 159 150 122 118 149 124 104 27 203 193 212 217 215 217 238 238 240 231 249 254 257 258 260